2023/06/27 00:00:00,161.9,19.7
2023/06/27 00:10:00,161.9,19.8
2023/06/27 00:20:00,161.9,19.6
2023/06/27 00:30:00,161.9,19.7
2023/06/27 00:40:00,161.9,19.6
2023/06/27 00:50:00,161.9,19.6
2023/06/27 01:00:00,161.9,19.7
2023/06/27 01:10:00,161.9,19.5
2023/06/27 01:20:00,161.9,19.7
2023/06/27 01:30:00,161.9,19.7
2023/06/27 01:40:00,161.9,19.8
2023/06/27 01:50:00,161.9,20.1
2023/06/27 02:00:00,161.9,19.5
2023/06/27 02:10:00,161.9,19.8
2023/06/27 02:20:00,161.9,19.7
2023/06/27 02:30:00,161.9,19.7
2023/06/27 02:40:00,161.9,19.8
2023/06/27 02:50:00,161.9,19.6
2023/06/27 03:00:00,161.9,19.8
2023/06/27 03:10:00,161.9,19.9
2023/06/27 03:20:00,161.9,19.9
2023/06/27 03:30:00,161.9,19.9
2023/06/27 03:40:00,161.9,19.8
2023/06/27 03:50:00,161.9,20.2
2023/06/27 04:00:00,161.9,19.8
2023/06/27 04:10:00,161.9,19.5
2023/06/27 04:20:00,161.9,19.7
2023/06/27 04:30:00,161.9,20.0
2023/06/27 04:40:00,161.9,20.3
2023/06/27 04:50:00,161.9,20.6
2023/06/27 05:00:00,161.9,20.5
2023/06/27 05:10:00,161.9,20.3
2023/06/27 05:20:00,161.9,20.2
2023/06/27 05:30:00,161.7,21.0
2023/06/27 05:40:00,161.7,21.5
2023/06/27 05:50:00,161.7,21.5
2023/06/27 06:00:00,161.7,21.9
2023/06/27 06:10:00,161.7,21.9
2023/06/27 06:20:00,161.7,21.9
2023/06/27 06:30:00,161.7,22.0
2023/06/27 06:40:00,161.7,22.6
2023/06/27 06:50:00,161.7,22.5
2023/06/27 07:00:00,161.6,22.9
2023/06/27 07:10:00,161.6,22.4
2023/06/27 07:20:00,161.6,22.9
2023/06/27 07:30:00,---,23.0
2023/06/27 07:40:00,---,22.5
2023/06/27 07:50:00,---,21.8
2023/06/27 08:00:00,103.0,22.1
2023/06/27 08:10:00,103.0,24.3
2023/06/27 08:20:00,103.0,25.4
2023/06/27 08:30:00,96.5,25.7
2023/06/27 08:40:00,96.5,26.1
2023/06/27 08:50:00,42.8,26.1
2023/06/27 09:00:00, 0.0,26.4
2023/06/27 09:10:00,---,27.2
2023/06/27 09:20:00,---,26.6
2023/06/27 09:30:00,---,27.1
2023/06/27 09:40:00, 0.0,26.1
2023/06/27 09:50:00, 0.0,26.3
2023/06/27 10:00:00, 0.0,27.7
2023/06/27 10:10:00,---,27.2
2023/06/27 10:20:00, 0.0,26.9
2023/06/27 10:30:00, 3.6,26.6
2023/06/27 10:40:00,30.5,27.8
2023/06/27 10:50:00,30.5,27.6
2023/06/27 11:00:00,57.6,27.3
2023/06/27 11:10:00,50.8,28.5
2023/06/27 11:20:00,68.2,28.3
2023/06/27 11:30:00,68.2,29.0
2023/06/27 11:40:00,59.8,28.4
2023/06/27 11:50:00,59.8,28.1
2023/06/27 12:00:00,35.1,27.9
2023/06/27 12:10:00,110.2,28.6
2023/06/27 12:20:00,110.2,29.0
2023/06/27 12:30:00,---,29.6
2023/06/27 12:40:00, 0.0,29.8
2023/06/27 12:50:00,57.8,29.4
2023/06/27 13:00:00,108.6,30.6
2023/06/27 13:10:00,116.2,28.9
2023/06/27 13:20:00,116.2,30.7
2023/06/27 13:30:00,128.1,30.2
2023/06/27 13:40:00,127.0,30.0
2023/06/27 13:50:00,131.9,28.8
2023/06/27 14:00:00,131.9,28.8
2023/06/27 14:10:00,131.9,29.6
2023/06/27 14:20:00,---,30.6
2023/06/27 14:30:00,---,30.1
2023/06/27 14:40:00,---,28.6
2023/06/27 14:50:00,---,29.2
2023/06/27 15:00:00,140.1,29.6
2023/06/27 15:10:00,160.2,28.3
2023/06/27 15:20:00,136.5,29.5
2023/06/27 15:30:00,113.8,29.9
2023/06/27 15:40:00,137.1,31.4
2023/06/27 15:50:00,---,30.0
2023/06/27 16:00:00,---,31.1
2023/06/27 16:10:00,159.1,30.4
2023/06/27 16:20:00,159.6,31.2
2023/06/27 16:30:00,160.7,31.7
2023/06/27 16:40:00,160.9,32.7
2023/06/27 16:50:00,117.8,33.2
2023/06/27 17:00:00,136.5,33.1
2023/06/27 17:10:00,120.3,33.2
2023/06/27 17:20:00,127.7,32.6
2023/06/27 17:30:00,---,28.3
2023/06/27 17:40:00,---,27.2
2023/06/27 17:50:00,---,26.9
2023/06/27 18:00:00,---,26.1
2023/06/27 18:10:00,---,24.4
2023/06/27 18:20:00,---,23.6
2023/06/27 18:30:00,---,23.4
2023/06/27 18:40:00,---,23.2
2023/06/27 18:50:00,---,23.0
2023/06/27 19:00:00,---,23.0
2023/06/27 19:10:00,---,22.3
2023/06/27 19:20:00,---,22.2
2023/06/27 19:30:00,---,22.2
2023/06/27 19:40:00,---,22.2
2023/06/27 19:50:00,---,21.8
2023/06/27 20:00:00,---,21.8
2023/06/27 20:10:00,---,21.7
2023/06/27 20:20:00,---,21.7
2023/06/27 20:30:00,---,21.7
2023/06/27 20:40:00,---,21.9
2023/06/27 20:50:00,---,21.7
2023/06/27 21:00:00,---,22.0
2023/06/27 21:10:00,---,22.1
2023/06/27 21:20:00,---,21.7
2023/06/27 21:30:00,---,21.7
2023/06/27 21:40:00,---,21.4
2023/06/27 21:50:00,---,21.5
2023/06/27 22:00:00,---,21.2
2023/06/27 22:10:00,---,21.2
2023/06/27 22:20:00,---,20.8
2023/06/27 22:30:00,---,20.8
2023/06/27 22:40:00,---,20.6
2023/06/27 22:50:00,---,21.0
2023/06/27 23:00:00,---,20.6
2023/06/27 23:10:00,---,20.7
2023/06/27 23:20:00,---,21.0
2023/06/27 23:30:00,---,20.9
2023/06/27 23:40:00,---,21.0
2023/06/27 23:50:00,161.0,21.0
